User: anonymous   Login
Location: Oshawa
(43.9000°N, 78.8670°W)
Time: 13:53:02
(UTC-04:00)
Language:

Explorer 7 - Orbit

View from above orbital plane
View from above orbital plane
View from above satellite
View from above satellite

Ground track
Ground track

The orbit data is extracted from the following two-line orbital elements,

1 00022U 59009A   15146.79323551  .00001921  00000-0  17583-3 0  9999
2 00022 050.2827 122.6988 0147798 046.5636 314.7499 14.92005655948906
Epoch (UTC): 26 May 2015 19:02:15
Eccentricity: 0.0147798
inclination: 50.2827°
perigee height: 488 km
apogee height: 694 km
right ascension of ascending node: 122.6988°
argument of perigee: 46.5636°
revolutions per day: 14.92005655
mean anomaly at epoch: 314.7499°
orbit number at epoch: 94890

The dashed part of the orbit path shows where the satellite is in the earth's shadow,  

DLR